Ketchikan, AK

10:57 PM AKDT on September 20, 2018 (GMT -0800)
Ketchikan International

Weather History for PAKT - October, 2017

Change the Weather History Date:

Thursday, October 12, 2017

  Actual Average Record
Temperature  
Mean Temperature 44 °F -  
Max Temperature 50 °F 51 °F 60 °F (1957)
Min Temperature 37 °F 40 °F 31 °F (1992)
Degree Days  
Heating Degree Days 22    
Moisture  
Dew Point 37 °F    
Average Humidity 79    
Maximum Humidity 93    
Minimum Humidity 64    
Precipitation  
Precipitation 0.00 in - - ()
Sea Level Pressure  
Sea Level Pressure 30.11 in    
Wind  
Wind Speed 8 mph (NW)    
Max Wind Speed 14 mph    
Max Gust Speed -    
Visibility 10 miles    
Events      
Averages and records for this station are not official NWS values.
T = Trace of Precipitation, MM = Missing Value Source: NWS Daily Summary

Daily Weather History Graph

Daily Weather History Graph

Search for Another Location

Airport or City:

Astronomy

Oct. 12, 2017 Rise Set
Actual Time 7:11 AM AKDT 5:53 PM AKDT
Civil Twilight 6:35 AM AKDT 6:30 PM AKDT
Nautical Twilight 5:52 AM AKDT 7:12 PM AKDT
Astronomical Twilight 5:09 AM AKDT 7:55 PM AKDT
Moon 11:35 PM AKDT (10/12) 3:04 PM AKDT (10/12)
Length of Visible Light 11h 55m
Length of Day
10h 41m
Waning Gibbous, 47% of the Moon is Illuminated
Oct 12
Waning Gibbous
Oct 19
New
Oct 27
First Quarter
Nov 3
Full
Nov 10
Last Quarter

Hourly Weather History & Observations

Time (AKDT) Temp. Windchill Dew Point Humidity Pressure Visibility Wind Dir Wind Speed Gust Speed Precip Events Conditions
12:53 AM 43.0 °F 36.8 °F 37.9 °F 82% 30.07 in 10.0 mi NW 11.5 mph - N/A   Clear
1:53 AM 43.0 °F 37.2 °F 37.0 °F 80% 30.08 in 10.0 mi NW 10.4 mph - N/A   Clear
2:53 AM 43.0 °F 38.2 °F 37.0 °F 80% 30.09 in 10.0 mi WNW 8.1 mph - N/A   Clear
3:53 AM 41.0 °F 37.1 °F 36.0 °F 82% 30.09 in 10.0 mi WNW 5.8 mph - N/A   Clear
4:53 AM 43.0 °F 40.3 °F 37.0 °F 80% 30.10 in 10.0 mi NW 4.6 mph - N/A   Clear
5:53 AM 37.9 °F - 36.0 °F 93% 30.10 in 10.0 mi Calm Calm - N/A   Clear
6:05 AM 39.9 °F 37.8 °F 36.0 °F 86% 30.10 in 10.0 mi NW 3.5 mph - N/A   Clear
6:53 AM 39.2 °F 35.0 °F 37.4 °F 93% 30.11 in 10.0 mi NW 5.8 mph - N/A   Partly Cloudy
7:53 AM 42.8 °F 39.3 °F 37.4 °F 81% 30.11 in 10.0 mi NW 5.8 mph - N/A   Partly Cloudy
8:53 AM 44.6 °F 39.2 °F 37.4 °F 76% 30.11 in 10.0 mi NNW 10.4 mph - N/A   Partly Cloudy
9:53 AM 45.0 °F 38.9 °F 37.9 °F 76% 30.12 in 10.0 mi NNW 12.7 mph - N/A   Clear
10:53 AM 46.4 °F 40.7 °F 39.2 °F 76% 30.12 in 10.0 mi North 12.7 mph - N/A   Partly Cloudy
11:53 AM 46.9 °F - 39.0 °F 74% 30.12 in 10.0 mi North 13.8 mph - N/A   Clear
12:53 PM 48.9 °F - 37.0 °F 64% 30.11 in 10.0 mi NNW 12.7 mph - N/A   Clear
1:53 PM 48.9 °F - 39.0 °F 69% 30.10 in 10.0 mi NNW 12.7 mph - N/A   Clear
2:53 PM 50.0 °F - 39.0 °F 66% 30.11 in 10.0 mi NNW 11.5 mph - N/A   Clear
3:53 PM 48.2 °F - 37.4 °F 66% 30.11 in 10.0 mi NW 6.9 mph - N/A   Clear
4:53 PM 46.4 °F 42.9 °F 37.4 °F 71% 30.10 in 10.0 mi NW 6.9 mph - N/A   Clear
5:53 PM 46.4 °F 42.4 °F 39.2 °F 76% 30.11 in 10.0 mi North 8.1 mph - N/A   Clear
6:53 PM 43.0 °F 40.3 °F 37.9 °F 82% 30.12 in 10.0 mi NW 4.6 mph - N/A   Clear
7:53 PM 41.0 °F 37.1 °F 36.0 °F 82% 30.12 in 10.0 mi NW 5.8 mph - N/A   Clear
8:53 PM 43.0 °F 38.8 °F 36.0 °F 76% 30.14 in 10.0 mi WNW 6.9 mph - N/A   Clear
9:53 PM 43.0 °F 38.8 °F 37.0 °F 80% 30.14 in 10.0 mi NW 6.9 mph - N/A   Clear
10:53 PM 41.0 °F 37.1 °F 37.0 °F 86% 30.15 in 10.0 mi NW 5.8 mph - N/A   Clear
11:53 PM 39.9 °F 35.1 °F 36.0 °F 86% 30.17 in 10.0 mi NW 6.9 mph - N/A   Clear